Location: Cahas Mountain Overlook
(37.0833°N, 80.1000°W)
Time: 14:08:42
(UTC-04:00)

FO-29 - Pass Details

Date: 27 April 2024
Orbit: 801 x 1320 km, 98.6° (Epoch: 19 September)

Event Time Altitude Azimuth Distance (km) Brightness Sun altitude
Rises 04:17:18 0° 3° (N) 4,252 13.5 -23.7°
Reaches altitude 10° 04:20:14 10° 355° (N) 3,316 12.7 -23.3°
Maximum altitude 04:27:00 34° 294° (WNW) 2,020 10.9 -22.3°
Enters shadow 04:29:20 29° 263° (W) 2,213 10.9 -21.9°
